Wind_Speed
16 16 16 15 15 15 15 15 16 16 16 16 16 16 16 16 17 17 18 18 17 16 16 16 16 15 16 17 17 16 15 15 15 16 16 15 15 15 15 15 14 14 14 15
16 16 16 16 15 15 14 15 15 16 15 15 16 16 16 17 17 18 18 17 16 16 16 16 16 16 16 16 16 15 15 15 15 15 15 15 14 14 14 14 13 13 14 15
16 17 16 15 14 14 15 15 16 16 16 15 16 17 17 17 17 18 18 18 17 17 16 16 16 16 16 16 16 16 15 15 15 15 15 14 14 14 14 13 13 13 13 14
18 17 16 15 15 15 15 16 16 17 17 16 16 17 17 17 17 18 18 18 18 17 16 16 16 16 16 16 16 16 16 16 15 15 14 14 14 14 13 13 13 13 14 14
18 17 17 16 16 16 16 15 16 17 17 17 17 18 18 17 17 18 18 18 18 17 16 17 16 16 17 17 16 16 17 16 15 14 14 13 13 13 13 13 13 13 14 15
19 19 18 17 16 17 17 16 17 17 18 18 18 18 18 18 18 18 18 18 18 18 18 17 17 17 18 17 17 17 16 15 15 15 14 13 13 13 13 13 13 14 15 15
19 19 18 18 17 18 18 18 18 18 18 18 19 19 19 20 19 19 19 20 20 19 19 18 18 18 18 17 16 16 16 16 15 15 14 14 13 13 13 13 14 14 15 16
20 20 19 19 18 19 19 19 19 20 20 19 20 20 21 21 21 21 20 20 20 20 20 20 19 19 18 17 17 17 16 16 15 14 14 13 13 13 14 13 14 15 16 17
22 22 21 21 20 21 21 20 20 21 21 21 21 22 22 22 22 22 21 21 21 21 21 20 20 19 18 17 17 17 16 15 14 13 13 13 12 13 13 13 14 15 16 17
24 24 23 22 22 22 22 23 22 22 22 23 23 23 23 23 24 23 23 23 22 22 22 21 20 19 18 18 17 17 16 15 14 14 14 13 13 13 13 14 14 15 16 17
26 26 25 24 24 24 24 25 25 25 24 24 24 24 24 25 25 24 23 23 22 22 22 21 19 19 18 17 17 17 16 15 15 14 14 14 14 14 14 14 14 15 16 17
27 27 27 27 26 26 26 26 26 26 25 25 25 25 25 25 25 24 23 23 22 22 21 20 19 18 17 17 17 16 15 15 15 15 15 15 14 14 14 15 15 16 16 17
29 29 29 29 28 28 28 28 27 27 27 27 26 26 26 25 25 24 23 23 22 21 20 19 19 18 18 17 17 15 15 14 15 16 16 15 14 14 14 15 16 17 17 17
30 30 30 30 30 29 29 29 29 28 28 27 27 26 26 25 25 24 23 23 22 21 20 19 19 18 18 17 17 15 15 15 16 16 16 15 15 15 14 15 15 16 16 17
31 31 31 31 31 30 30 29 29 28 27 27 27 27 26 25 24 24 23 22 22 21 20 19 19 19 19 18 17 16 16 16 16 16 16 16 15 15 15 15 15 16 16 17
32 32 31 31 31 30 29 29 28 27 27 26 26 26 25 24 23 22 22 21 21 21 20 19 19 19 19 18 17 17 17 17 17 17 17 16 15 15 15 15 15 16 17 17
32 31 30 30 30 29 29 29 28 28 27 27 26 25 24 23 23 22 21 21 21 21 21 20 20 20 19 18 18 17 17 17 17 17 17 16 16 15 15 15 15 16 17 18
32 31 30 30 30 30 29 29 29 28 28 27 26 25 25 24 23 22 22 22 22 22 21 21 21 21 20 19 19 18 18 18 18 17 17 16 15 15 15 16 16 17 18 18
31 31 31 31 30 30 30 29 28 28 28 27 26 26 25 24 24 23 23 23 23 23 22 21 21 21 21 20 20 19 19 19 18 18 17 17 16 15 16 17 17 17 18 19
31 31 30 30 30 29 29 28 28 27 27 27 26 25 25 24 24 24 24 23 23 23 22 21 21 21 21 21 21 20 19 19 19 18 18 17 16 16 16 16 17 18 19 19
30 30 30 30 29 28 27 27 26 26 26 26 25 25 25 25 25 24 24 23 23 23 22 21 21 21 21 21 20 20 20 19 18 18 17 16 16 16 16 17 17 18 19 20
30 30 29 29 28 27 27 27 26 26 26 25 25 25 25 25 25 25 24 23 22 22 21 21 21 21 21 21 20 19 18 18 18 18 17 17 17 17 17 18 18 19 20 20
30 29 29 29 28 28 27 27 27 26 26 26 25 25 25 25 25 25 24 24 23 22 22 22 21 21 21 21 20 19 18 18 18 18 17 17 17 17 18 18 19 20 20 20
29 29 29 29 28 27 27 27 26 26 26 26 26 26 26 26 26 26 25 24 24 24 23 22 21 21 21 20 19 18 18 18 18 18 17 18 18 17 18 18 19 20 21 21
30 29 29 29 28 28 28 28 28 27 27 27 26 26 26 26 26 25 24 24 24 24 24 23 22 22 22 21 20 19 18 19 18 18 18 18 18 18 18 19 19 20 20 21
29 29 29 29 29 29 29 29 29 28 28 28 28 27 27 26 26 25 25 25 25 24 24 23 22 22 22 22 21 20 20 20 19 19 18 19 20 20 19 19 19 20 20 20
30 30 30 29 29 29 29 29 29 29 28 28 28 28 27 27 26 26 26 26 25 25 24 23 22 21 21 21 21 20 20 20 20 20 20 20 20 20 19 19 19 20 20 20
Wind_Direction
297 298 298 297 295 295 297 299 301 302 302 305 305 304 305 310 313 314 316 316 313 312 314 315 314 316 318 319 323 326 325 323 323 325 327 327 327 326 326 327 328 328 328 329
296 300 297 296 295 296 296 297 301 302 300 301 303 305 308 311 313 314 315 317 318 317 317 319 317 318 320 320 322 323 324 323 325 328 327 326 327 326 325 326 327 329 330 331
297 299 298 298 298 294 294 298 299 299 299 300 302 303 306 309 313 314 314 316 317 318 317 316 318 320 322 323 323 323 324 324 326 327 326 325 325 325 324 327 329 329 329 332
298 298 296 299 298 297 297 297 299 298 299 299 302 304 307 309 310 311 312 313 315 318 318 317 319 319 321 321 321 321 321 321 322 323 323 322 322 323 326 326 326 328 330 331
297 298 297 296 296 297 297 300 300 301 300 299 300 302 305 307 309 310 311 312 313 314 315 318 320 320 319 317 317 317 318 319 319 320 321 320 320 321 323 325 324 325 326 329
294 294 295 295 294 297 298 299 298 298 300 299 299 299 300 303 305 306 308 309 310 311 311 313 314 315 316 314 314 313 313 314 316 317 318 318 318 321 322 324 326 327 327 328
290 291 292 295 295 296 297 297 296 298 299 298 299 301 301 302 303 303 303 304 306 306 308 309 310 310 312 312 311 310 310 312 314 313 315 316 315 319 320 322 324 326 328 328
286 287 289 294 295 296 297 296 297 298 299 299 299 299 300 301 302 301 301 302 303 304 306 307 308 308 309 310 311 311 310 310 310 310 311 314 314 315 318 319 321 325 327 328
283 285 287 290 292 294 295 296 296 297 298 298 299 300 300 301 302 301 300 301 301 303 305 305 306 306 306 307 308 310 310 309 308 308 310 312 314 316 317 317 320 323 326 329
280 281 284 287 290 291 292 294 295 295 296 297 299 301 302 302 302 300 298 297 298 299 302 303 303 302 302 303 304 307 307 305 303 304 307 309 310 314 318 320 322 324 326 329
278 281 283 286 287 287 289 291 292 293 294 295 297 299 301 301 301 299 297 297 297 296 298 298 299 300 298 298 299 302 301 300 300 300 303 303 304 308 312 317 319 322 324 326
278 279 281 283 285 285 285 286 289 291 291 293 296 298 299 299 300 298 297 297 297 295 295 295 296 295 294 295 296 297 296 296 299 299 301 302 302 304 309 313 316 320 323 325
277 278 278 280 281 282 282 284 286 288 290 292 293 295 297 298 298 299 298 298 298 297 295 294 296 293 291 293 293 294 294 295 298 300 301 301 300 302 306 310 314 318 320 323
276 276 277 278 279 280 280 281 283 285 287 289 291 293 295 296 297 297 296 297 297 297 296 294 293 291 291 293 292 290 290 292 294 297 299 300 299 302 305 309 313 317 319 322
274 275 276 277 278 279 279 280 281 282 284 287 289 291 293 294 294 295 294 295 295 295 294 293 292 290 290 290 289 286 287 290 292 295 298 299 298 299 302 306 311 315 319 322
272 274 274 275 276 277 277 278 279 280 282 285 288 290 292 292 291 292 292 292 293 292 291 289 291 291 289 288 285 283 283 287 291 293 295 295 295 296 299 304 308 312 317 321
272 273 274 275 276 275 275 276 277 278 280 283 285 288 290 290 289 289 290 290 291 291 288 287 287 288 287 284 283 282 283 285 288 292 292 291 292 293 297 302 307 310 314 318
270 271 273 275 276 275 274 275 276 277 278 280 282 285 287 286 285 285 286 288 290 289 288 286 285 284 284 282 280 280 283 285 286 288 289 288 288 289 293 298 304 308 311 315
270 272 273 274 275 274 275 275 276 277 278 278 280 282 284 283 283 283 284 286 287 286 285 283 282 282 283 283 281 281 281 281 283 283 283 283 282 285 290 297 303 309 312 315
269 271 273 274 275 274 275 275 276 276 276 276 278 279 280 280 281 283 285 287 287 285 284 282 281 280 283 283 282 281 280 278 279 282 280 280 281 283 288 295 302 309 314 316
269 271 272 272 273 274 275 274 274 275 276 276 278 278 279 279 280 283 285 286 286 284 282 281 280 280 281 282 282 281 280 278 278 279 277 278 280 283 288 293 299 306 310 314
269 270 271 272 272 273 274 273 273 274 274 275 275 276 277 278 280 283 285 284 282 281 279 279 280 281 281 281 282 281 280 277 275 276 275 277 280 282 287 292 297 303 308 312
268 268 269 270 271 271 271 271 272 272 273 275 275 275 277 279 281 282 283 282 281 279 279 278 278 279 280 279 279 279 279 278 277 277 275 276 279 281 285 290 296 301 305 310
267 267 267 267 268 268 268 269 271 273 274 274 274 275 277 279 281 281 281 281 280 279 279 279 277 276 276 276 276 275 276 277 277 276 276 277 279 282 285 290 294 298 303 306
266 266 266 265 265 265 265 267 270 273 273 273 273 274 276 277 278 278 279 279 279 279 278 276 277 276 273 273 272 272 274 275 276 277 277 278 279 281 285 291 294 297 300 303
264 265 266 265 264 264 265 266 268 271 272 272 272 273 274 275 275 274 275 277 277 277 275 273 272 273 273 273 272 272 273 273 273 274 277 278 279 281 285 288 291 295 298 302
263 264 266 266 266 265 265 266 268 270 270 271 272 273 274 274 274 273 273 274 274 273 272 270 269 269 271 272 272 271 270 272 272 273 276 278 278 280 284 287 290 293 295 299
Height
5812 5810 5808 5807 5805 5804 5802 5800 5799 5798 5796 5795 5793 5791 5789 5786 5784 5781 5778 5775 5772 5769 5767 5764 5762 5760 5758 5755 5753 5751 5749 5747 5745 5743 5741 5738 5736 5733 5731 5728 5725 5723 5720 5717
5809 5807 5805 5803 5802 5800 5799 5797 5796 5794 5793 5791 5789 5787 5785 5783 5781 5778 5775 5772 5769 5767 5765 5762 5760 5757 5755 5753 5751 5748 5746 5744 5742 5740 5738 5736 5734 5731 5729 5726 5724 5721 5718 5715
5806 5804 5802 5801 5799 5797 5796 5794 5793 5791 5790 5788 5786 5784 5782 5780 5777 5775 5772 5770 5767 5764 5762 5760 5757 5755 5753 5751 5748 5746 5744 5742 5740 5738 5736 5734 5732 5729 5727 5724 5722 5719 5716 5713
5802 5801 5799 5799 5796 5794 5792 5791 5789 5787 5786 5784 5783 5780 5778 5776 5774 5772 5769 5767 5765 5762 5760 5757 5755 5753 5751 5748 5746 5743 5741 5739 5737 5736 5734 5732 5730 5727 5725 5723 5720 5717 5715 5711
5798 5796 5795 5794 5792 5790 5789 5788 5786 5784 5782 5781 5779 5777 5775 5773 5771 5768 5766 5764 5762 5759 5757 5755 5753 5750 5748 5746 5744 5741 5739 5737 5735 5734 5732 5730 5727 5725 5723 5721 5718 5715 5712 5709
5794 5792 5791 5791 5789 5787 5786 5784 5783 5780 5778 5777 5775 5774 5772 5769 5767 5765 5762 5760 5758 5756 5754 5752 5750 5747 5745 5743 5741 5739 5737 5735 5733 5731 5729 5727 5725 5723 5720 5718 5716 5713 5710 5707
5789 5787 5786 5786 5784 5784 5783 5782 5779 5776 5774 5773 5771 5769 5768 5765 5762 5760 5758 5756 5754 5752 5750 5749 5747 5744 5742 5740 5738 5736 5734 5732 5730 5728 5726 5724 5722 5720 5718 5716 5713 5710 5707 5704
5784 5783 5784 5781 5780 5779 5778 5776 5774 5772 5770 5768 5766 5764 5762 5760 5758 5756 5754 5752 5750 5748 5747 5745 5743 5741 5738 5736 5734 5732 5730 5729 5727 5725 5723 5721 5719 5717 5715 5713 5710 5708 5705 5702
5780 5780 5777 5776 5775 5774 5772 5770 5769 5767 5765 5763 5762 5759 5757 5755 5753 5751 5749 5747 5745 5744 5742 5740 5738 5736 5734 5733 5731 5729 5727 5725 5723 5721 5720 5718 5716 5714 5712 5710 5707 5705 5702 5699
5773 5772 5771 5770 5769 5768 5766 5765 5763 5762 5760 5758 5756 5754 5752 5750 5748 5745 5743 5742 5740 5739 5737 5735 5733 5732 5730 5728 5726 5725 5723 5721 5720 5718 5717 5715 5713 5711 5709 5707 5704 5701 5698 5695
5766 5766 5765 5764 5763 5761 5760 5759 5757 5756 5754 5752 5750 5748 5746 5744 5742 5740 5738 5736 5735 5733 5731 5730 5728 5727 5725 5724 5722 5721 5719 5717 5716 5714 5713 5711 5710 5708 5706 5703 5701 5698 5695 5692
5759 5759 5758 5758 5756 5755 5754 5752 5751 5749 5748 5746 5744 5742 5740 5738 5736 5734 5732 5731 5729 5727 5726 5724 5723 5721 5720 5719 5717 5716 5715 5713 5712 5710 5709 5707 5706 5704 5702 5700 5697 5695 5692 5689
5751 5750 5750 5749 5748 5747 5746 5745 5743 5742 5741 5739 5737 5736 5734 5732 5730 5728 5726 5725 5723 5721 5720 5719 5717 5716 5715 5713 5712 5711 5710 5709 5708 5706 5705 5703 5702 5700 5698 5696 5694 5691 5688 5685
5741 5741 5741 5741 5740 5739 5738 5737 5736 5735 5733 5732 5730 5729 5727 5726 5724 5722 5720 5718 5717 5715 5714 5713 5712 5710 5709 5708 5707 5706 5705 5704 5703 5702 5701 5699 5698 5696 5694 5692 5690 5688 5685 5682
5733 5732 5732 5732 5731 5730 5729 5729 5728 5727 5726 5724 5723 5721 5720 5718 5717 5715 5714 5712 5711 5709 5708 5707 5706 5705 5704 5703 5702 5701 5700 5699 5698 5697 5696 5694 5693 5692 5690 5688 5686 5684 5681 5678
5724 5723 5723 5723 5722 5722 5721 5720 5720 5719 5718 5717 5715 5714 5712 5711 5709 5708 5707 5706 5705 5703 5702 5701 5700 5699 5698 5697 5696 5696 5695 5694 5693 5692 5691 5690 5689 5687 5686 5684 5682 5680 5677 5675
5714 5714 5714 5713 5713 5713 5712 5712 5712 5711 5710 5709 5708 5707 5705 5704 5703 5702 5701 5700 5698 5697 5696 5695 5694 5693 5692 5691 5691 5690 5689 5688 5688 5687 5686 5685 5684 5683 5681 5680 5678 5676 5673 5670
5705 5705 5705 5705 5704 5704 5704 5703 5703 5702 5702 5701 5700 5699 5698 5697 5696 5695 5694 5693 5692 5691 5690 5689 5688 5687 5686 5685 5685 5684 5683 5683 5682 5681 5681 5680 5679 5678 5677 5675 5674 5671 5669 5666
5695 5696 5696 5695 5695 5695 5695 5695 5694 5694 5694 5693 5693 5692 5691 5690 5689 5688 5688 5687 5685 5684 5684 5682 5682 5681 5680 5679 5678 5678 5677 5677 5676 5676 5675 5674 5674 5673 5672 5671 5669 5667 5664 5662
5686 5686 5686 5686 5686 5686 5686 5686 5686 5685 5685 5685 5685 5684 5684 5683 5682 5681 5680 5680 5679 5678 5677 5676 5675 5674 5674 5673 5672 5672 5671 5671 5670 5670 5669 5669 5669 5668 5667 5666 5664 5662 5660 5657
5677 5677 5678 5677 5678 5678 5678 5678 5678 5678 5677 5677 5677 5677 5676 5675 5675 5674 5673 5672 5672 5671 5670 5669 5668 5668 5667 5666 5666 5665 5665 5664 5664 5664 5663 5663 5663 5662 5661 5660 5659 5657 5655 5652
5668 5668 5669 5669 5669 5669 5669 5669 5670 5670 5669 5669 5669 5669 5668 5668 5667 5667 5666 5665 5664 5663 5663 5662 5662 5661 5661 5660 5659 5659 5658 5658 5658 5657 5657 5657 5657 5656 5656 5655 5654 5652 5650 5647
5658 5659 5659 5660 5660 5661 5661 5661 5661 5661 5661 5661 5661 5661 5660 5660 5659 5659 5659 5658 5657 5656 5656 5655 5655 5654 5654 5653 5653 5653 5652 5652 5652 5651 5651 5651 5651 5650 5650 5649 5648 5646 5644 5641
5649 5650 5650 5651 5651 5652 5652 5652 5653 5653 5653 5653 5653 5653 5652 5652 5652 5651 5650 5650 5650 5649 5649 5648 5648 5648 5647 5647 5647 5647 5646 5646 5646 5646 5645 5645 5645 5644 5644 5643 5642 5640 5638 5636
5640 5640 5641 5641 5642 5642 5643 5643 5644 5644 5645 5645 5644 5644 5644 5643 5644 5643 5643 5642 5642 5642 5641 5641 5641 5641 5640 5640 5640 5640 5640 5640 5640 5639 5639 5639 5639 5638 5637 5636 5635 5634 5632 5630
5630 5631 5631 5632 5632 5633 5634 5635 5635 5635 5636 5636 5636 5636 5635 5635 5635 5635 5635 5634 5634 5634 5634 5633 5634 5633 5633 5633 5633 5633 5633 5633 5633 5633 5633 5632 5632 5631 5631 5630 5629 5627 5626 5624
5621 5621 5622 5622 5623 5623 5624 5625 5625 5626 5626 5627 5627 5627 5627 5627 5627 5627 5626 5626 5626 5626 5626 5626 5626 5626 5626 5626 5626 5626 5626 5626 5626 5626 5626 5625 5625 5624 5624 5623 5622 5621 5619 5617